{"data":{"norad_id":35933,"epoch":"2026-05-25T04:15:41.639328Z","epoch_age_seconds":69861,"freshness":"FRESH","line1":"1 35933U 09051C   26145.17756527  .00000725  00000+0  15561-3 0  9990","line2":"2 35933  98.3981  52.3476 0004240 310.2632  49.8197 14.61676163885827","mean_motion":14.61676163,"eccentricity":0.000424,"inclination_deg":98.3981,"raan_deg":52.3476,"arg_perigee_deg":310.2632,"mean_anomaly_deg":49.8197,"bstar":0.00015561,"rev_number":88582,"period_min":98.517033830838,"perigee_km":684.77103995616,"apogee_km":690.76292653395,"semimajor_km":7065.9039832451,"source":"CELESTRAK","updated_at":"2026-05-25T13:38:25.488482Z"}}